NOAA 16 DEB, 41215

Orbit data source: Space-Track

NOAA 16 DEB, 41215 is space debris in SSO originally from a launch on Thu, 21 Sep 2000 UTC launched from the Air Force Western Test Range (AFWTR). Debris objects in space refer to the collection of defunct objects orbiting the Earth. Examples of debris include non-operational satellites, rocket bodies, and fragments generated from explosions, collisions, or faulty payload assembly.

Loading next visibility...
Identifier
41215, 2000-055DU
Orbit
SSO
Country
Flag of USUS
Related business
Manufacturer
Unknown
Mission
Spacecraft
Bus & Motor
Unknown
Mass
Unknown
Launch date (UTC)
Icon of a cake. It is the launch day of the satellite!2000-09-21 (26 years ago)
Launch vehicle
Unknown
Launch site
Air Force Western Test Range (AFWTR)
Object type
Payload
Rocket body
Debris
Shape & HBR
Unknown shape, 0.1 m
Radar Cross Section
Medium (>0.1 m² and <1 m²)

Expand to show TLE details & history
Last TLE update: 2 days ago

TLE from 2 days ago
0 NOAA 16 DEB
1 41215U 00055DU  26262.64549628  .00004610  00000-0  11495-2 0  9998
2 41215  98.8224  49.3890 0021942 150.3865 209.8577 14.51998760561209
Epoch: 2026-09-19T15:29Z
TLE epoch observation values (Epoch: 2026-09-19T15:29:30.878Z)
Latitude
0.00005°
Longitude
178.45928°
Altitude
735.599 km
Speed
7.48 km/s
True Right ascension
03h 17m 33s
True Declination
0° 00' 00"
Sunlit
Object was in full shadow at epoch
Visualization orbit readout
Latitude
Unknown
Longitude
Unknown
Altitude
Unknown
Speed
Unknown
Apparent Right ascension
Unknown
Apparent Declination
Unknown
Sunlit
N/A
Visualization observer readout
Local Sidereal Time
09:56:58
Azimuth
Unknown
Elevation
Unknown
Doppler factor
Unknown
Orbital elements
Apogee altitude
731.816 km
Perigee altitude
700.683 km
Semi-major axis
7,094.386 km
Eccentricity
0.00219
Inclination
98.8224°
RAAN
49.389°
Arg. of periapsis
150.3865°
True anomaly
209.73282°
Mean anomaly
209.8577°
Eccentric anomaly
209.79523°
Mean motion
3.63221 °/min
Orbital period
99.11 mins
BSTAR
0.0011495
Loading maneuver chart data...
Computing Atmospheric mass density...

Documentation

Showing up to 5 results
|